Regional Weather Roundup
Issued by NWS

Home | Current Version | Previous Version | Graphics & Text | Print | Product List | Glossary On
Versions: 1 2 3 4 5 6 7 8 9 10 11 12 13 14 15 16 17 18 19 20 21 22 23 24 25 26 27
000
ASUS45 KBOU 280907
RWRCO

WEATHER ROUNDUP FOR COLORADO
NATIONAL WEATHER SERVICE DENVER/BOULDER CO
300 AM MDT TUE MAR 28 2017

NOTE: "FAIR" INDICATES FEW OR NO CLOUDS BELOW 12000 FEET WITH NO
SIGNIFICANT WEATHER AND/OR OBSTRUCTIONS TO VISIBILITY.

COZ001>005-013-030-031-281000-
...NORTHWEST COLORADO...

CITY           SKY/WX    TMP DP  RH WIND       PRES   REMARKS
CRAIG          LGT RAIN  38  34  85 NW5       29.86R
HAYDEN         MOCLDY    36  30  80 CALM      29.85S
MEEKER         LGT RAIN  38  37  97 S3        29.85S FOG
MOUNT WERNER   NOT AVBL
STEAMBOAT SPGS CLOUDY    34  32  92 CALM      29.84S
WALDEN         NOT AVBL
$$

COZ006>008-011-281000-
...WEST CENTRAL VALLEYS...

CITY           SKY/WX    TMP DP  RH WIND       PRES   REMARKS
GRAND JUNCTION LGT RAIN  42  42 100 SE12      29.85S
MONTROSE       LGT RAIN  39  39 100 NW8       29.88R
EAGLE          RAIN      35  33  92 E3        29.89F
RIFLE          CLOUDY    42  40  92 CALM      29.85F
DELTA          CLOUDY    44  40  86 CALM      29.86S
NUCLA          RAIN      37  36  93 S3        29.90S
$$

COZ017>023-064>068-281000-
...SOUTHWEST COLORADO...

CITY           SKY/WX    TMP DP  RH WIND       PRES   REMARKS
DURANGO        CLOUDY    36  34  92 NE8       29.86F
CORTEZ         CLOUDY    39  38  96 SW6       29.86S
PAGOSA SPRINGS CLOUDY    35  35  99 CALM      29.90F
TELLURIDE      LGT SNOW  32  32 100 CALM      29.90S
WOLF CREEK PAS HVY SNOW  23  23 100 S21G37    29.96R VSB 1/4 WCI   8
$$

COZ009-010-012-014-032>034-037-058>063-281000-
...CENTRAL COLORADO...

CITY           SKY/WX    TMP DP  RH WIND       PRES   REMARKS
ASPEN          LGT SNOW  32  32 100 N6        29.86F VSB 3/4 WCI  26
BUENA VISTA    CLOUDY    39  31  74 SE6       29.86S
COPPER MTN     CLOUDY    28  23  80 MISG      29.93F
BERTHOUD PASS  HVY SNOW  21  10  63 SE14G23   29.94S VSB<1/4 WCI   8
COTTONWOOD PAS CLOUDY    34  30  86 N3        29.89F
GUNNISON       MOCLDY    36  34  92 E6        29.87F
KREMMLING      LGT RAIN  37  36  93 S3        29.87F
LEADVILLE      CLOUDY    29  26  89 CALM      29.87F
MONARCH PASS   FOG       27  23  86 SW14      30.03F VSB 1/4 WCI  15
SALIDA         MOCLDY    44  32  64 S3        29.92F
SUNLIGHT       MIX PCPN  27  25  93 S6        29.94S WCI  20
WILKERSON PASS CLOUDY    28  28 100 S7        29.96F FOG     WCI  21
$$

COZ069>075-281000-
...SAN LUIS VALLEY/SANGRE DE CRISTO MOUNTAINS...

CITY           SKY/WX    TMP DP  RH WIND       PRES   REMARKS
ALAMOSA        FAIR      35  33  92 S12       29.86F WCI  27
LA VETA PASS   NOT AVBL
SAGUACHE       CLOUDY    36  32  87 SE6       29.89F
$$

COZ035-036-038>040-281000-
...NORTHERN COLORADO FRONT RANGE...

CITY           SKY/WX    TMP DP  RH WIND       PRES   REMARKS
DENVER INTL AP CLOUDY    45  41  86 W7        29.81F
DMNS CITY PARK   N/A     46  40  78 NW7       29.82F
AURORA         MOCLDY    44  42  93 W3        29.83F
FRONT RANGE AP CLOUDY    46  43  87 W6        29.83S
ERIE MUNI ARPT CLOUDY    45  41  87 NW5       29.82F
BOULDER MUN AP CLOUDY    45  43  93 W5        29.82F
CENTENNIAL     CLOUDY    46  40  79 N5        29.82F
BROOMFIELD     CLOUDY    45  41  87 NW7       29.83F
FORT COLLINS   FAIR      46  41  82 N10       29.82F
LONGMONT       CLOUDY    47  42  83 NW3       29.83F
$$

COZ041-046-047-076>085-087-088-281000-
...PIKES PEAK/PALMER DIVIDE AND SOUTHERN FOOTHILLS...

CITY           SKY/WX    TMP DP  RH WIND       PRES   REMARKS
COLO. SPRINGS  MOCLDY    44  39  82 CALM      29.85F
A. F. ACADEMY  CLOUDY    44  42  93 SE5       29.84F
SCHRIEVER AFB  FAIR      40  37  88 NE7       29.84F
ELLICOTT       NOT AVBL
FALCON         CLOUDY    40  39  98 SE6       29.86F
FORT CARSON    CLOUDY    44  41  88 CALM      29.83F
LIMON          FAIR      39  36  89 SE10      29.84F
MONUMENT HILL  FAIR      37  36  93 S14       29.85F
TRINIDAD       FAIR      49  38  65 CALM      29.80F
$$

COZ042>045-048>051-090-091-281000-
...NORTHEAST COLORADO...

CITY           SKY/WX    TMP DP  RH WIND       PRES   REMARKS
GREELEY ARPT   FAIR      41  39  93 N6        29.81F
AKRON          CLOUDY    47  36  65 SE17      29.84F
BURLINGTON     FAIR      46  41  82 SE17      29.88S
WRAY           LGT RAIN  46  41  81 SE8       29.89
STERLING       DRIZZLE   48  41  76 SE9       29.84S
HOLYOKE        FAIR      46  41  81 SE9       29.90S
FORT MORGAN    CLOUDY    47  36  67 E9        29.83F
$$

COZ086-089-092>099-281000-
...SOUTHEAST COLORADO...

CITY           SKY/WX    TMP DP  RH WIND       PRES   REMARKS
PUEBLO         FAIR      44  42  93 N10       29.78F
LA JUNTA       FAIR      47  36  65 E14       29.79F
LAMAR          MOCLDY    50  39  66 SE8       29.84S
SPRINGFIELD      N/A     43  37  79 E7        29.85F
$$




USA.gov is the U.S. government's official web portal to all federal, state and local government web resources and services.